Content
SEND FEEDBACK

Daily
Averages
Monthly
Summary
United States of America

DURANGO, COLORADO


Home > North America > United States > Colorado
Elevation: 6685 feet     Latitude: 37 09N     Longitude: 107 45W

WEATHER
 
SELECT A DAY
Number of Records: 185,846;   Date Range: 1/1/95 - 10/30/14
 
SHARE

PRINT THIS DATA

[ ← Previous Day ]
WEATHER ALMANAC - JULY 11, 2013
[ Next Day → ]
[ °C ]   °F
Weather ElementAverageHighLow
Temperature63.9 °F84.9 °F (6:53 pm) (8:53 pm)
Dewpoint39.7 °F63 °F (11:53 pm) (7:00 pm)
Humidity52.9 %100 % (11:53 pm)29 % (1:53 pm)
Barometer30.03 in30.20 in (9:53 pm)29.81 in (6:53 pm)
Wind Speed6.8 mph32.2 mph (7:19 pm)
Wind Gust43.7 mph (7:19 pm)
Weather ElementAverage
Visibility8.8 mi
Wind DirectionESE (120.6 °)

Weather ElementTotal
Precipitation2.34 in
Heating Degree Days22.6 (Base 65)
Averaged from 32 records on July 11, 2013
WEATHER CONDITIONS BREAKOUT
WIND DIRECTION BREAKOUT
WEATHER BY HOUR - JULY 11, 2013
[ °C ]   °F
Local TimeTemperatureDewpointHumidityBarometerVisibilityWind DirectionWind SpeedGust SpeedPrecipitationEventsConditions
1:53 AM59.0 °F50.0 °F72 %30.00 in10.0 miENE (70°)5.8 mphClear
2:53 AM57.9 °F48.9 °F72 %29.98 in10.0 miCalmClear
3:53 AM55.9 °F48.0 °F75 %29.97 in10.0 miCalmClear
4:53 AM55.9 °F46.9 °F72 %29.98 in10.0 miCalmMostly Cloudy
5:53 AM55.0 °F48.0 °F77 %30.02 in10.0 miCalmClear
6:53 AM59.0 °F48.9 °F69 %30.08 in10.0 miCalmScattered Clouds
7:53 AM64.9 °F50.0 °F58 %30.06 in10.0 miNNE (30°)3.5 mphClear
8:53 AM68.0 °F51.1 °F55 %30.08 in10.0 miEast (80°)5.8 mphMostly Cloudy
9:53 AM73.0 °F51.1 °F46 %30.05 in10.0 miEast (90°)5.8 mphClear
10:53 AM75.0 °F51.1 °F43 %30.04 in10.0 miENE (60°)5.8 mphClear
11:53 AM79.0 °F51.1 °F38 %30.00 in10.0 miEast (80°)8.1 mphClear
12:53 PM80.1 °F51.1 °F36 %29.98 in10.0 miEast (90°)8.1 mphClear
1:53 PM84.0 °F48.9 °F29 %29.94 in10.0 miSSE (160°)9.2 mph17.3 mphClear
2:53 PM82.9 °F48.9 °F31 %29.90 in10.0 miSouth (180°)5.8 mphClear
3:53 PM84.0 °F48.9 °F29 %29.88 in10.0 miCalmPartly Cloudy
4:53 PM84.0 °F48.9 °F29 %29.86 in10.0 miSW (220°)3.5 mphScattered Clouds
5:01 PM82.4 °F48.2 °F30 %30.13 in10.0 miWest (260°)9.2 mphThunderstormThunderstorm
5:14 PM80.6 °F48.2 °F32 %30.13 in10.0 miWest (260°)18.4 mph23.0 mphThunderstormPartly Cloudy
5:42 PM80.6 °F48.2 °F32 %30.12 in10.0 miWNW (300°)3.5 mphClear
5:53 PM82.0 °F46.9 °F29 %29.85 in10.0 miNorth (350°)4.6 mphClear
6:53 PM84.9 °F48.9 °F29 %29.81 in10.0 miNorth (360°)10.4 mphThunderstormClear
7:19 PM68.0 °F57.2 °F68 %30.14 in1.8 miSSE (150°)32.2 mph43.7 mph0.09 inRain-ThunderstormHeavy Thunderstorms and Rain
7:25 PM64.4 °F59.0 °F83 %30.14 in0.8 miNorth0.19 inThunderstorm
7:33 PM62.6 °F59.0 °F88 %30.18 inWSW (240°)9.2 mph40.3 mph0.47 inThunderstormThunderstorm
7:43 PM64.4 °F0.0 °F30.17 in1.2 miNorth (350°)13.8 mph20.7 mph0.53 inRain-ThunderstormThunderstorms and Rain
7:45 PM66.2 °F0.0 °F30.16 in3.0 miNorth (360°)18.4 mph0.53 inRain-ThunderstormLight Thunderstorms and Rain
7:53 PM66.0 °F0.0 °F29.90 inNorth0.53 inThunderstormThunderstorm
8:53 PM0.0 °F0.0 °F30.16 inNorthThunderstorm
9:11 PM0.0 °F0.0 °F30.18 inNorth
9:53 PM0.0 °F0.0 °F30.20 inNorth
10:53 PM62.1 °F0.0 °F29.94 in10.0 miSouth (170°)3.5 mphClear
11:53 PM63.0 °F63.0 °F100 %29.94 in10.0 miCalmScattered Clouds
Hourly data recorded from KDRO, located miles away from Durango, Colorado







STORIES FROM OUR PARTNERS